Regional Weather Roundup
Issued by NWS Green Bay, WI

Home | Current Version | Previous Version | Graphics & Text | Print | Product List | Glossary Off
Versions: 1 2 3 4 5 6 7 8 9 10 11 12 13 14 15 16 17 18 19 20 21 22 23 24 25 26 27 28 29 30 31 32 33 34 35 36 37 38 39 40 41 42 43 44 45 46 47 48 49 50

128
ASUS43 KGRB 230111
RWRGRB

NORTH-CENTRAL AND NORTHEAST WISCONSIN REGIONAL WEATHER ROUNDUP
NATIONAL WEATHER SERVICE GREEN BAY WI
700 PM CST MON JAN 22 2018

WIZ005-009-010>012-018-019-230200-
NORTH CENTRAL WISCONSIN

CITY           SKY/WX    TMP DP  RH WIND       PRES   REMARKS
IRONWOOD       LGT SNOW  25  21  86 NE9       29.81S VSB 3/4
MANITOWISH WTR SNOW      23  23 100 N9        29.71F VSB 1/2
ARBOR VITAE    LGT SNOW  25  23  92 NE13      29.68F
EAGLE RIVER    LGT SNOW  25  24  99 N17       29.67F VSB 3/4
LAND O LAKES   LGT SNOW  25  22  91 NE9       29.72F
RHINELANDER    LGT SNOW  26  25  96 NE12G23   29.62F VSB 3/4
PHILLIPS       LGT SNOW  25  24  97 N18G28    29.65F
ANTIGO         LGT SNOW  28  26  94 NE17      29.58R
TOMAHAWK       LGT SNOW  27  24  91 NE14G20   29.61F
MERRILL        LGT SNOW  29  27  92 NE13G29   29.58F
$$

WIZ013-073-230200-
NORTHEAST WISCONSIN

CITY           SKY/WX    TMP DP  RH WIND       PRES   REMARKS
IRON MOUNTAIN  LGT SNOW  28  25  88 N10       29.65F VSB 3/4
MARINETTE      LGT SNOW  29  28  96 NE14G22   29.60F FOG
OCONTO         CLOUDY    30  28  91 N9        29.58F
$$

WIZ017-030-035>037-045-230200-
CENTRAL WISCONSIN

CITY           SKY/WX    TMP DP  RH WIND       PRES   REMARKS
MEDFORD        FLURRIES  28  25  87 NE15G23   29.58R
WAUSAU         LGT SNOW  30  27  88 NE10      29.56F FOG
MOSINEE        LGT SNOW  30  28  93 NE14      29.57F
MARSHFIELD     LGT SNOW  31  29  92 NE12      29.56R FOG
WISC RAPIDS    NOT AVBL
STEVENS POINT  CLOUDY    29  28  96 NE13      29.57S
WAUPACA        CLOUDY    32  28  86 N10       29.56S
SHAWANO        CLOUDY    32  29  88 NE13      29.59S
CLINTONVILLE   CLOUDY    32  28  86 NE14G23   29.57S
WAUTOMA        CLOUDY    31  28  89 NE17G23   29.54S
$$

WIZ038-039-048-051-230200-
FOX VALLEY

CITY           SKY/WX    TMP DP  RH WIND       PRES   REMARKS
NWS GREEN BAY  CLOUDY    31  29  92 N20G33    29.56S FOG
APPLETON       CLOUDY    30  30 100 N18G29    29.52S
OSHKOSH        CLOUDY    32  30  92 NE21G31   29.52F
FOND DU LAC    LGT RAIN  33  30  88 N18       29.52S FOG
$$

WIZ022-050-052-230200-
EAST CENTRAL WISCONSIN

CITY           SKY/WX    TMP DP  RH WIND       PRES   REMARKS
EPHRAIM        CLOUDY    30  29  95 NE10      29.56F FOG
WASHINGTON ISL LGT SNOW  30  29  96 NE12G25   29.60S
STURGEON BAY   CLOUDY    32  30  92 N17       29.56F FOG
MANITOWOC      MIX PCPN  34  33  96 N13G20    29.52R
SHEBOYGAN      LGT RAIN  35  35 100 N13       29.50R FOG
$$

LMZ563-521-522-541>543-230200-
LAKESHORE

STATION/POSITION TIME  TEMP    WIND        PRES    VSBY  WAVE
                       AIR SEA DIR/SP/G                  HT/PER
                 (UTC) (F)     (DEG/KT/KT) (MB)    (MI)  (FT/S)
SHEBOYGAN LKSHOR 0100   35     350/ 17/ 19  999.4R
KEWAUNEE LKSHORE 0042   34      10/ 15/ 24  999.5F
NORTHPORT PIER   0040   31      40/  9/ 17 1003.7R
SISTER BAY LKSHO 0020   31      30/  9/ 18   N/A
MENOMINEE LKSHOR 0036   30     360/ 28/ 32 1002.2F
$$




USA.gov is the U.S. government's official web portal to all federal, state and local government web resources and services.